Flag for U.S.A. Weather past 2 weeks in Greeley, Colorado, U.S.A.

Now
63 °F

Sunny.


Feels Like: 63 °F
Forecast: 55 / 90 °F
Wind: 5 mph from Northeast

Location: Greeley / Weld

Current Time: Jul 30, 2015 at 8:24:13 AM

Latest Report: Jul 30, 2015 at 7:55 AM


Visibility: 10 mi

Pressure: 30.33 "Hg (25.65 "Hg at 1424m altitude)

Humidity: 73%

Dew point: 54 °F

Location of GreeleyLocation

Historic Weather in Greeley — Graph

°F

Greeley temperature yesterday

Maximum temperature yesterday: 88 °F (at 1:35 PM)
Minimum temperature yesterday: 54 °F (at 2:35 AM)
Average temperature yesterday: 72 °F

Past Weeks' High & Low Weather Summary

 TemperatureHumidityPressure
High99 °F (Jul 27, 2:55 PM)100% (Jul 16, 2:35 AM)30.33 "Hg (Jul 16, 2:35 AM)
Low52 °F (Jul 16, 5:35 AM)11% (Jul 17, 1:55 PM)29.77 "Hg (Jul 27, 6:15 PM)
Average72 °F54%30.07 "Hg
* Reported Jul 15 7:15 AM — Jul 30 7:15 AM, Greeley, Weather by CustomWeather, © 2015

Note: Actual official high and low records may vary slightly from our data, if they occured in-between our weather recording intervals... More about our weather records

Advertising

Greeley weather history for previous 24 hours

 ConditionsComfort  
Time TempWeatherWind HumidityBarometerVisibility
7:15 AM
Thu, Jul 30
59 °FSunny.7 mph77%30.32 "Hg10 mi
6:55 AM57 °FSunny.7 mph82%30.31 "Hg10 mi
6:35 AM55 °FClear.6 mph82%30.31 "Hg10 mi
6:15 AM54 °FClear.7 mph82%30.30 "Hg10 mi
5:55 AM54 °FClear.8 mph88%30.30 "Hg10 mi
5:35 AM54 °FClear.6 mph82%30.29 "Hg10 mi
5:15 AM54 °FClear.5 mph82%30.29 "Hg10 mi
4:55 AM54 °FClear.7 mph82%30.28 "Hg10 mi
4:35 AM55 °FClear.7 mph77%30.28 "Hg10 mi
4:15 AM55 °FClear.7 mph82%30.28 "Hg10 mi
3:55 AM55 °FClear.6 mph82%30.28 "Hg10 mi
3:35 AM55 °FClear.3 mph82%30.28 "Hg10 mi
3:15 AM57 °FClear.No wind72%30.28 "Hg10 mi
2:55 AM57 °FClear.6 mph77%30.28 "Hg10 mi
2:35 AM59 °FClear.6 mph72%30.27 "Hg10 mi
2:15 AM61 °FClear.8 mph63%30.27 "Hg10 mi
1:55 AM61 °FClear.7 mph68%30.27 "Hg10 mi
1:35 AM63 °FClear.7 mph59%30.27 "Hg10 mi
1:15 AM63 °FClear.6 mph59%30.28 "Hg10 mi
12:55 AM63 °FClear.6 mph59%30.27 "Hg10 mi
12:35 AM64 °FClear.7 mph56%30.27 "Hg10 mi
12:15 AM66 °FClear.7 mph52%30.27 "Hg10 mi
11:55 PM
Wed, Jul 29
66 °FClear.9 mph52%30.27 "Hg10 mi
11:35 PM68 °FClear.8 mph49%30.27 "Hg10 mi
11:15 PM70 °FClear.9 mph46%30.27 "Hg10 mi
10:55 PM70 °FClear.7 mph46%30.27 "Hg10 mi
10:35 PM72 °FClear.9 mph41%30.26 "Hg10 mi
9:35 PM73 °FClear.12 mph41%30.25 "Hg10 mi
9:15 PM73 °FSunny.12 mph41%30.24 "Hg10 mi
8:55 PM73 °FSunny.9 mph41%30.23 "Hg10 mi
8:35 PM75 °FSunny.7 mph39%30.23 "Hg10 mi
8:15 PM77 °FSunny.9 mph36%30.23 "Hg10 mi
7:55 PM79 °FSunny.8 mph34%30.22 "Hg10 mi
7:35 PM81 °FSunny.10 mph32%30.22 "Hg10 mi
7:15 PM82 °FSunny.10 mph30%30.22 "Hg10 mi
6:55 PM82 °FSunny.12 mph30%30.22 "Hg10 mi
6:35 PM84 °FSunny.13 mph29%30.21 "Hg10 mi
6:15 PM86 °FSunny.13 mph29%30.21 "Hg10 mi
5:55 PM88 °FSunny.10 mph27%30.21 "Hg10 mi
5:35 PM88 °FSunny.9 mph25%30.21 "Hg10 mi
5:15 PM86 °FSunny.16 mph29%30.21 "Hg10 mi
4:55 PM88 °FSunny.13 mph27%30.22 "Hg10 mi
4:35 PM86 °FSunny.10 mph29%30.22 "Hg10 mi
3:55 PM88 °FSunny.10 mph27%30.23 "Hg10 mi
3:35 PM88 °FSunny.15 mph29%30.23 "Hg10 mi
3:15 PM88 °FSunny.15 mph29%30.24 "Hg10 mi
2:55 PM88 °FSunny.14 mph25%30.24 "Hg10 mi
2:35 PM88 °FSunny.13 mph25%30.25 "Hg10 mi
2:15 PM88 °FSunny.16 mph25%30.25 "Hg10 mi
1:55 PM88 °FPassing clouds.13 mph27%30.25 "Hg10 mi
1:35 PM88 °FSunny.9 mph27%30.25 "Hg10 mi
1:15 PM86 °FSunny.13 mph27%30.26 "Hg10 mi
12:55 PM86 °FSunny.14 mph29%30.27 "Hg10 mi
12:35 PM86 °FSunny.15 mph29%30.27 "Hg10 mi
12:15 PM84 °FSunny.14 mph33%30.28 "Hg10 mi
11:55 AM82 °FSunny.10 mph35%30.28 "Hg10 mi
11:35 AM79 °FSunny.No wind39%30.29 "Hg10 mi
11:15 AM81 °FSunny.6 mph37%30.29 "Hg10 mi
10:55 AM81 °FSunny.13 mph34%30.30 "Hg10 mi
10:35 AM75 °FSunny.9 mph44%30.30 "Hg10 mi
10:15 AM79 °FSunny.15 mph39%30.30 "Hg10 mi
9:55 AM75 °FSunny.9 mph44%30.30 "Hg10 mi
9:35 AM72 °FSunny.7 mph44%30.31 "Hg10 mi
9:15 AM72 °FSunny.9 mph44%30.31 "Hg10 mi
8:55 AM70 °FSunny.12 mph46%30.31 "Hg10 mi
8:35 AM66 °FSunny.12 mph52%30.31 "Hg10 mi
8:15 AM64 °FSunny.10 mph52%30.32 "Hg5 mi
Weather by CustomWeather, © 2015

See weather overviewHow to use our weather pages